Location: Kaarina
(60.4167°N, 22.4167°E)
Time: 17:32:56
(UTC+03:00)

Cosmos 990 Rocket - Pass Details

Date: 24 August 2019
Orbit: 748 x 768 km, 74.0° (Epoch: 18 September)

Event Time Altitude Azimuth Distance (km) Brightness Sun altitude
Rises 22:06:17 0° 189° (S) 3,216 6.9 -7.8°
Reaches altitude 10° 22:08:43 10° 184° (S) 2,291 6.1 -8.0°
Maximum altitude 22:13:41 48° 111° (ESE) 991 4.2 -8.5°
Drops below altitude 10° 22:18:40 10° 39° (NE) 2,293 6.5 -8.9°
Sets 22:21:05 0° 34° (NNE) 3,219 7.3 -9.2°
